This demonstration page uses our WeatherBlox Daily Observations layout. Learn more.

Left ArrowRight Arrow

Hourly Observations for October 21, 2021

Temp ( °F °C ) Dew Point ( °F °C ) Humidity (%) Winds ( mph kmh ) Pressure ( in mb ) Visibility ( mi km ) Precip ( " mm )
12:53 am 00:53 Clear 65 18.3 55 12.8 70 70 SE 6 9 30.01 1016 10 16 N/A
1:53 am 01:53 Clear 64 17.8 57 13.9 78 78 SE 8 13 30.00 1016 9 14 N/A
2:53 am 02:53 Clear 64 17.8 60 15.6 87 87 ESE 6 9 30.00 1016 9 14 N/A
3:53 am 03:53 Clear 56 13.3 52 11.1 87 87 N 6 9 30.02 1017 8 13 N/A
4:53 am 04:53 Clear 55 12.8 48 8.9 77 77 N 6 9 30.03 1017 10 16 N/A
5:53 am 05:53 Clear 54 12.2 49 9.4 83 83 NNE 7 11 30.05 1018 9 14 N/A
6:13 am 06:13 Mostly Cloudy 57 13.9 53 11.7 87 87 N 6 9 30.11 1020 9 14 N/A
6:53 am 06:53 Cloudy 59 15 54 12.2 83 83 NNW 5 7 30.06 1018 9 14 N/A
7:03 am 07:03 Cloudy 59 15 53 11.7 81 81 N 6 9 30.12 1020 10 16 N/A
7:53 am 07:53 Cloudy 65 18.3 61 16.1 87 87 ENE 8 13 30.07 1018 10 16 N/A
8:53 am 08:53 Cloudy 66 18.9 61 16.1 84 84 NE 7 11 30.10 1019 10 16 N/A
9:53 am 09:53 Cloudy 68 20 61 16.1 78 78 E 8 13 30.12 1020 10 16 N/A
10:53 am 10:53 Cloudy 69 20.6 60 15.6 73 73 ENE 9 15 30.13 1020 10 16 N/A
11:53 am 11:53 Cloudy 71 21.7 60 15.6 68 68 SE 5 7 30.13 1020 10 16 N/A
12:40 pm 12:40 Partly Cloudy 73 22.8 61 16.1 66 66 ENE 7 11 30.08 1019 10 16 N/A
12:53 pm 12:53 Partly Cloudy 72 22.2 60 15.6 66 66 E 6 9 30.11 1020 10 16 N/A
1:53 pm 13:53 Sunny 76 24.4 61 16.1 60 60 undefined N/A 30.09 1019 10 16 N/A
2:53 pm 14:53 Sunny 78 25.6 60 15.6 54 54 VRB 6 9 30.05 1018 10 16 N/A
3:53 pm 15:53 Sunny 80 26.7 59 15 49 49 VRB 5 7 30.03 1017 10 16 N/A
4:53 pm 16:53 Sunny 81 27.2 60 15.6 49 49 SE 8 13 30.01 1016 10 16 N/A
5:53 pm 17:53 Sunny 81 27.2 60 15.6 49 49 ESE 10 17 30.01 1016 10 16 N/A
6:53 pm 18:53 Sunny 79 26.1 60 15.6 52 52 SE 10 17 30.00 1016 10 16 N/A
7:53 pm 19:53 Clear 76 24.4 60 15.6 58 58 SE 7 11 30.01 1016 10 16 N/A
8:53 pm 20:53 Clear 73 22.8 59 15 62 62 ESE 7 11 30.02 1017 10 16 N/A
9:53 pm 21:53 Clear 72 22.2 60 15.6 66 66 SE 10 17 30.01 1016 10 16 N/A
10:53 pm 22:53 Clear 70 21.1 60 15.6 71 71 SE 12 19 30.03 1017 10 16 N/A
11:53 pm 23:53 Clear 70 21.1 62 16.7 76 76 SSE 13 20 30.02 1017 10 16 N/A

Powered by AerisWeather